Weather History for Kecskemet, Hungary

Change the Weather History Date:

Tuesday, November 27, 2012

  Actual Average (LHBP) Record (LHBP)
Temperature  
Mean Temperature 50 °F -  
Max Temperature 59 °F 41 °F 59 °F (2012)
Min Temperature 42 °F 31 °F 17 °F (1999)
Degree Days  
Heating Degree Days 14    
Moisture  
Dew Point 44 °F    
Average Humidity 89    
Maximum Humidity 100    
Minimum Humidity 63    
Precipitation  
Precipitation 0.00 in - - ()
Sea Level Pressure  
Sea Level Pressure 29.89 in    
Wind  
Wind Speed 7 mph ()    
Max Wind Speed 9 mph    
Max Gust Speed -    
Visibility 3.1 miles    
Events Fog    
Averages and records for this station are not official NWS values.
T = Trace of Precipitation, MM = Missing Value Source: Averaged Metar Reports

Daily Weather History Graph

Daily Weather History Graph

Search for Another Location

Airport:

Trip Planner

Search our weather history database for the weather conditions in past years. The results will help you decide how hot, cold, wet, or windy it might be!

Date:

Astronomy

Nov. 27, 2012 Rise Set
Actual Time 7:00 AM CET 3:56 PM CET
Civil Twilight 6:26 AM CET 4:30 PM CET
Nautical Twilight 5:48 AM CET 5:08 PM CET
Astronomical Twilight 5:12 AM CET 5:44 PM CET
Moon 3:16 PM CET (11/27) 5:47 AM CET (11/27)
Length of Visible Light 10h 03m
Length of Day
8h 55m
Waxing Gibbous, 99% of the Moon is Illuminated
Nov 27
Waxing Gibbous
Nov 28
Full
Dec 6
Last Quarter
Dec 13
New
Dec 20
First Quarter

Hourly Weather History & Observations

Time (CET) Temp. Windchill Dew Point Humidity Pressure Visibility Wind Dir Wind Speed Gust Speed Precip Events Conditions
12:15 AM 42.8 °F 38.7 °F 42.8 °F 100% 29.95 in 2.5 mi SSE 6.7 mph - N/A   Scattered Clouds
12:45 AM 42.8 °F 38.7 °F 41.0 °F 93% 29.95 in 2.2 mi SSE 6.7 mph - N/A   Scattered Clouds
1:15 AM 42.8 °F 38.7 °F 41.0 °F 93% 29.95 in 1.9 mi SSE 6.7 mph - N/A   Mostly Cloudy
1:45 AM 42.8 °F 38.7 °F 41.0 °F 93% 29.95 in 1.9 mi SSE 6.7 mph - N/A   Mostly Cloudy
2:15 AM 42.8 °F 38.7 °F 41.0 °F 93% 29.92 in 1.6 mi SSE 6.7 mph - N/A   Mostly Cloudy
2:45 AM 42.8 °F 38.7 °F 41.0 °F 93% 29.92 in 1.6 mi SSE 6.7 mph - N/A   Mostly Cloudy
3:15 AM 42.8 °F 38.7 °F 42.8 °F 100% 29.92 in 1.9 mi SSE 6.7 mph - N/A   Scattered Clouds
3:45 AM 44.6 °F 40.8 °F 42.8 °F 93% 29.92 in 1.6 mi SSE 6.7 mph - N/A   Scattered Clouds
4:15 AM 42.8 °F 38.7 °F 42.8 °F 100% 29.92 in 1.6 mi SSE 6.7 mph - N/A   Mostly Cloudy
4:45 AM 44.6 °F 40.8 °F 44.6 °F 100% 29.89 in 1.9 mi SSE 6.7 mph - N/A   Scattered Clouds
5:15 AM 44.6 °F 39.8 °F 42.8 °F 93% 29.89 in 1.9 mi SSE 8.9 mph - N/A   Mostly Cloudy
5:45 AM - - - N/A% - 3.1 mi SSE 8.9 mph - N/A Fog Mist
6:15 AM 44.6 °F 39.8 °F 44.6 °F 100% 29.89 in 2.5 mi SSE 8.9 mph - N/A   Scattered Clouds
6:45 AM 44.6 °F 39.8 °F 42.8 °F 93% 29.89 in 1.9 mi SSE 8.9 mph - N/A   Mostly Cloudy
7:15 AM 44.6 °F 40.8 °F 42.8 °F 93% 29.89 in 1.9 mi SSE 6.7 mph - N/A   Mostly Cloudy
7:45 AM 44.6 °F 40.8 °F 42.8 °F 93% 29.92 in 1.9 mi SSE 6.7 mph - N/A   Mostly Cloudy
8:15 AM 44.6 °F 40.8 °F 44.6 °F 100% 29.92 in 2.2 mi SSE 6.7 mph - N/A   Mostly Cloudy
8:45 AM - - - N/A% - 3.1 mi South 8.9 mph - N/A   Scattered Clouds
9:15 AM 46.4 °F 42.0 °F 44.6 °F 93% 29.92 in 2.5 mi South 8.9 mph - N/A   Scattered Clouds
9:31 AM 48.2 °F - 46.4 °F 93% 29.92 in 3.1 mi SSE 8.9 mph - N/A   Scattered Clouds
9:45 AM 50.0 °F - 46.4 °F 87% 29.92 in 3.7 mi SSE 8.9 mph - N/A   Unknown
10:15 AM 51.8 °F - 46.4 °F 82% 29.92 in 5.0 mi SSE 8.9 mph - N/A   Unknown
10:45 AM 53.6 °F - 46.4 °F 77% 29.89 in 5.0 mi SSE 8.9 mph - N/A   Unknown
11:15 AM 55.4 °F - 46.4 °F 72% 29.89 in - SSE 8.9 mph - N/A   Clear
11:45 AM - - - N/A% - - South 8.9 mph - N/A   Clear
12:15 PM 57.2 °F - 46.4 °F 67% 29.89 in - SSE 8.9 mph - N/A   Clear
12:45 PM 59.0 °F - 46.4 °F 63% 29.86 in - SSE 8.9 mph - N/A   Clear
1:15 PM 57.2 °F - 46.4 °F 67% 29.86 in - SSE 8.9 mph - N/A   Clear
1:45 PM 57.2 °F - 46.4 °F 67% 29.86 in - SSE 8.9 mph - N/A   Clear
2:15 PM 55.4 °F - 46.4 °F 72% 29.86 in - SSE 6.7 mph - N/A   Clear
2:45 PM - - - N/A% - - SSE 6.7 mph - N/A   Clear
3:15 PM 53.6 °F - 46.4 °F 77% 29.86 in - SSE 6.7 mph - N/A   Clear
3:45 PM 51.8 °F - 46.4 °F 82% 29.86 in - SSE 6.7 mph - N/A   Clear
4:15 PM 50.0 °F - 46.4 °F 87% 29.86 in 5.0 mi SE 6.7 mph - N/A   Unknown
4:45 PM 48.2 °F - 46.4 °F 93% 29.86 in 4.3 mi SSE 6.7 mph - N/A   Unknown
5:15 PM 48.2 °F - 46.4 °F 93% 29.86 in 4.3 mi SSE 6.7 mph - N/A   Unknown
5:45 PM 48.2 °F - 46.4 °F 93% 29.86 in 4.3 mi SSE 6.7 mph - N/A   Unknown
6:15 PM 46.4 °F 42.0 °F 44.6 °F 93% 29.86 in 4.3 mi SSE 8.9 mph - N/A   Unknown
6:45 PM 46.4 °F 42.0 °F 44.6 °F 93% 29.86 in 4.3 mi SSE 8.9 mph - N/A   Unknown
7:15 PM 46.4 °F 43.0 °F 44.6 °F 93% 29.86 in 4.3 mi SSE 6.7 mph - N/A   Unknown
7:45 PM 46.4 °F 43.0 °F 44.6 °F 93% 29.86 in 4.3 mi SSE 6.7 mph - N/A   Unknown
8:15 PM 46.4 °F 43.0 °F 44.6 °F 93% 29.83 in 4.3 mi SSE 6.7 mph - N/A   Unknown
8:45 PM - - - N/A% - 2.5 mi SSE 6.7 mph - N/A   Mist
9:15 PM 46.4 °F 43.0 °F 44.6 °F 93% 29.83 in 4.3 mi SSE 6.7 mph - N/A   Unknown
9:45 PM 44.6 °F 40.8 °F 42.8 °F 93% 29.83 in 4.3 mi SSE 6.7 mph - N/A   Unknown
10:15 PM 44.6 °F 39.8 °F 42.8 °F 93% 29.83 in 4.3 mi SSE 8.9 mph - N/A   Unknown
10:45 PM 44.6 °F 39.8 °F 42.8 °F 93% 29.83 in 3.7 mi SE 8.9 mph - N/A   Unknown
11:15 PM 44.6 °F 39.8 °F 42.8 °F 93% 29.83 in 3.7 mi SE 8.9 mph - N/A   Unknown
11:45 PM - - - N/A% - 1.7 mi North - - N/A   Mist